Retour au catalogue

SL-8 DEB

ActifLEO
NORAD 21210·DEBRIS·🇷🇺 Russia

Lancé Feb 12, 1991 depuis Plesetsk Cosmodrome

Loading…

Prochains Passages (prochaines 24 heures)

TLE

FraisSource: Space-Track

Époque: Sep 14, 2026, 13:46 UTC

1 21210U 91009BD  26257.57428537 -.00000073  00000-0 -56696-3 0  9995
2 21210  74.0944 211.0479 0136893 181.6748 298.8300 12.17469262576058

Suivez SL-8 DEB en temps réel avec AllMySat

Download on the App Store